FALCON 9 DEB (44298 NORAD) Tracking and Keplerian Element Data

This shows tracking and keplerian element data for the satellite.

Feedback or suggestion? Click here.




ElementValue
Catalog44298
NameFALCON 9 DEB
Epoch Orbit2805
Epoch Day317.7359217
Epoch Year2019
RAAN69.0585
Inclination53.0029
Eccentricity0.000607
Argument of Perigee109.7209
Mean Anonmoly250.4451
Mean Motion15.4409879
Decay Rate2.43E-05
L11 44298U 19029BR 19317.73592170 .00002430 00000-0 61397-4 0 9992
L22 44298 53.0029 69.0585 0006070 109.7209 250.4451 15.44098790 28055



Live tracking and technical data element details for FALCON 9 DEB (NORAD 44298). FALCON 9 DEB can be tracked NOW for your location showing map with azimuth and elevation plus other details from your city location.







IsCatalogInMostPopularTable: catalog: 44298, numindb: 713
Update: records affected: 1



GetName: 44298 FALCON 9 DEB

Hit Count: updated at: Fri, 14 Jun 2024 19:03:02 GMT